sat.trackr.live / text

‹ back to catalog

STARLINK-34929

NORAD 65178 · 2025-175E

PAYLOAD ACTIVE UNKNOWN

§ Identity

Operator
Country
US
Launch date
2025-08-14
Launch site
AFWTR
Launch vehicle
Mass (kg)
RCS (m²)

Purposes: comms

External: N2YO · Heavens-Above · Gunter

§ Orbital elements

Epoch: 2026-05-25T02:14:11.829408Z

Period
95.64 min
Inclination
97.4513°
Eccentricity
0.0002560
Mean motion
15.05656906 rev/d
Perigee alt
547.7 km
Apogee alt
551.3 km
Semi-major
6,927.6 km
B*
2.4869e-4
RAAN
17.5389°
Arg perigee
85.1402°
Mean anomaly
275.0117°
Rev number
4,413

§ Raw data

STARLINK-349291 65178U 25175E   26145.09319247  .00003532  00000+0  24869-3 0  99942 65178  97.4513  17.5389 0002560  85.1402 275.0117 15.05656906 44132

JSON: /api/v1/satellites/65178 · /tle

For live sub-satellite position, see the globe view (requires WebGL).

§ Visibility from observer

Set your observer location to see the next 7 days of passes ≥ 10°. The values pass through the URL so the page stays shareable.

No JS? Fill the form by hand. The geolocation button needs JavaScript.